User: anonymous   Login
Location: Dumpton Point
(51.3500°N, 1.4433°E)
Time: 10:10:52
(UTC+00:00)
Language:

Cosmos 2061 Rocket - Orbit

View from above orbital plane
View from above orbital plane
View from above satellite
View from above satellite

Ground track
Ground track

The orbit data is extracted from the following two-line orbital elements,

1 20528U 90023B   20190.91297060 -.00000005 +00000-0 -22246-4 0  9994
2 20528 082.9361 317.5782 0032450 157.1849 319.6559 13.72866511518125
Epoch (UTC): 08 July 2020 21:54:40
Eccentricity: 0.0032450
inclination: 82.9361°
perigee height: 965 km
apogee height: 1013 km
right ascension of ascending node: 317.5782°
argument of perigee: 157.1849°
revolutions per day: 13.72866511
mean anomaly at epoch: 319.6559°
orbit number at epoch: 51812

The dashed part of the orbit path shows where the satellite is in the earth's shadow,  

DLR